SCP
0 0 0 0 0 0 0 0 0 0 0 0 0 0 0 0 0 0 0 0 0 0 0 0 0 0 0 1 1 1 1 1 1 1 1 0 0 0 0 0 0 0 -0
0 0 0 0 0 0 0 0 0 0 0 0 0 0 0 0 0 0 0 0 0 0 0 0 0 0 0 0 0 1 1 1 1 1 1 0 0 0 0 0 0 0 -0
0 0 0 0 0 0 0 0 0 0 0 0 0 0 0 0 0 0 0 0 0 0 0 0 0 0 0 0 0 1 1 1 1 1 0 0 0 0 0 0 0 0 0
0 0 0 0 0 0 0 0 0 0 0 0 0 0 0 0 0 0 1 1 0 0 0 0 1 0 0 0 0 1 1 1 1 1 1 0 0 0 0 0 0 0 0
0 0 0 0 0 0 0 0 0 0 1 1 0 0 0 0 0 0 0 0 0 0 0 0 0 0 0 0 0 1 1 0 0 1 1 1 1 0 0 0 0 0 0
1 1 0 1 2 3 2 1 1 0 1 0 0 0 0 0 0 0 0 0 0 0 0 0 0 0 0 0 0 0 0 1 0 1 0 0 0 0 0 0 1 1 0
0 0 0 0 0 1 1 1 0 0 0 0 0 0 0 0 0 0 0 0 0 0 0 0 0 0 0 0 0 0 0 0 0 0 0 0 0 0 0 0 0 0 0
0 0 0 0 0 0 0 0 0 0 0 0 0 0 0 0 0 0 0 0 0 0 0 0 0 0 0 0 0 0 0 0 0 0 0 0 0 0 0 0 0 0 0
0 0 0 0 0 0 0 0 0 0 0 0 0 0 0 0 0 0 0 0 0 0 0 0 0 0 0 0 0 0 0 0 0 0 0 0 0 0 0 0 0 0 0
0 0 0 0 0 0 0 0 0 0 0 0 0 0 0 0 0 0 0 0 0 0 0 0 0 0 0 0 0 0 0 0 0 0 0 0 0 1 1 0 0 1 1
0 0 0 0 0 0 0 0 0 0 0 0 0 0 0 0 0 0 0 0 0 0 0 0 0 0 0 0 0 0 0 0 0 0 0 0 0 1 1 1 1 1 1
0 0 0 0 0 0 0 0 0 0 0 0 0 0 0 0 0 0 0 0 0 0 0 0 0 0 0 0 0 0 0 0 0 0 0 0 0 1 1 1 1 1 1
0 0 0 0 0 0 0 0 0 0 0 0 0 0 0 0 0 0 0 0 0 0 0 0 0 0 0 0 0 0 0 0 0 0 0 0 0 0 0 1 1 1 1
0 0 0 0 0 0 0 0 0 0 0 0 0 0 0 0 0 0 0 0 0 0 0 0 0 0 0 0 0 0 0 0 0 0 0 0 0 0 0 0 0 0 0
0 0 0 0 0 0 0 0 0 0 0 0 0 0 0 0 0 0 0 0 0 0 0 0 0 0 0 0 0 0 0 0 0 0 0 0 0 0 0 0 0 0 0
0 0 0 0 0 0 0 0 0 0 0 0 0 0 0 0 0 0 0 0 0 0 0 0 0 0 0 0 0 0 0 0 0 0 0 0 0 0 0 0 0 0 0
0 0 0 0 0 0 0 0 0 0 0 0 0 0 0 0 0 0 0 0 0 0 0 0 0 0 0 0 0 0 0 0 0 0 0 0 0 0 0 0 0 0 0
0 0 0 0 0 0 0 0 0 0 0 0 0 0 0 0 0 0 0 0 0 0 0 0 0 0 0 0 0 0 0 0 0 0 0 0 0 0 0 0 0 0 0
0 0 0 0 0 0 0 0 0 0 0 0 0 0 0 0 0 0 0 0 0 0 0 0 0 0 0 0 0 0 0 0 0 0 0 0 0 0 0 0 0 0 0
0 0 0 0 0 0 0 0 0 0 0 0 0 0 0 0 0 0 0 0 0 0 0 0 0 0 0 0 0 0 0 0 0 0 0 0 0 0 0 0 0 0 0
0 0 0 0 0 0 0 0 0 0 0 0 0 0 0 0 0 0 0 0 0 0 0 0 0 0 0 0 0 0 0 0 0 0 0 0 0 -0 -0 0 0 0 0
0 0 0 0 0 0 0 0 0 0 0 0 0 0 0 0 0 0 0 0 0 0 0 0 0 0 0 0 0 0 0 0 0 0 0 0 0 0 0 0 0 0 0
0 0 0 0 0 0 0 0 0 0 0 0 0 0 0 0 0 0 0 0 0 0 0 0 0 0 0 0 0 0 0 0 0 0 0 0 0 0 0 0 0 0 0
0 0 0 0 0 0 0 0 0 0 0 0 0 0 0 0 0 0 0 0 0 0 0 0 0 0 0 0 0 0 0 0 0 0 0 0 0 0 0 0 0 0 0
0 0 0 0 0 0 0 0 0 0 0 0 0 0 0 0 0 0 0 0 0 0 0 0 0 0 0 0 0 0 0 0 0 0 0 0 0 0 0 0 0 0 0
0 0 0 0 0 0 0 0 0 0 0 0 0 0 0 0 0 0 0 0 0 0 0 0 0 0 0 0 -0 0 0 0 -0 0 0 0 0 0 0 0 0 0 0
Wind_Speed_500mb
33 31 31 33 34 38 39 37 36 36 37 38 37 39 35 29 28 30 31 30 29 27 27 26 26 28 31 34 34 36 39 37 33 29 36 39 38 40 42 46 48 49 48
30 28 31 33 33 34 36 37 35 35 35 37 38 38 41 36 33 33 31 30 28 30 31 29 27 30 35 36 37 35 37 39 40 40 43 46 42 42 44 47 51 52 56
30 29 28 35 32 30 31 34 33 35 38 43 46 39 37 39 41 38 36 36 36 33 30 23 32 35 33 33 33 32 37 43 48 51 53 53 50 49 48 48 52 56 58
36 35 33 33 32 34 32 32 34 39 46 48 54 48 52 49 46 36 38 36 36 31 32 31 40 38 35 34 40 41 42 44 49 48 47 43 40 44 47 49 51 56 59
38 36 38 29 31 40 43 38 41 55 63 63 67 59 53 46 44 44 52 49 41 37 38 34 33 33 34 37 35 34 36 36 33 38 36 37 42 45 49 49 50 51 57
43 39 45 32 45 48 53 58 50 56 63 68 69 70 63 62 64 52 44 40 38 50 40 37 35 32 34 33 31 30 33 27 26 26 29 40 43 42 41 44 45 44 51
51 55 51 46 55 63 62 67 67 72 67 78 67 71 59 75 70 57 55 50 50 56 48 42 38 36 34 31 30 30 34 34 33 36 37 40 42 43 44 41 44 44 42
63 53 59 55 62 62 61 72 78 76 76 74 77 70 70 68 61 57 41 57 72 57 52 42 40 38 37 36 35 35 37 42 41 40 39 40 44 47 46 42 43 48 50
60 65 67 69 68 63 81 84 84 83 76 58 58 68 29 25 36 45 54 55 50 52 48 42 39 39 42 45 42 44 45 50 51 50 49 46 47 44 45 43 42 45 48
48 54 59 63 74 76 70 64 51 40 45 71 31 37 32 19 26 36 51 45 33 42 42 47 50 48 48 51 53 57 54 56 58 57 58 50 45 45 43 47 45 44 42
32 30 23 31 22 33 27 23 27 38 45 44 32 21 19 29 37 59 74 69 61 55 59 63 65 65 64 66 69 71 68 64 63 61 63 60 47 46 44 42 40 41 44
32 23 30 33 45 42 33 37 38 36 40 46 45 40 40 45 51 57 63 66 73 81 77 76 77 76 77 80 83 82 76 70 65 59 67 68 61 52 48 48 44 42 41
17 21 23 24 31 39 41 41 45 45 50 55 47 49 54 59 55 56 60 66 75 87 89 92 93 92 92 92 94 86 77 73 71 66 67 68 70 56 53 50 47 42 39
25 24 22 28 37 35 38 38 39 44 46 42 53 53 48 43 47 53 58 60 70 72 73 92 95 101 99 95 96 95 92 86 76 68 63 56 67 67 56 56 54 52 47
20 21 25 25 25 31 33 36 38 40 43 46 47 47 47 48 54 56 58 58 54 49 75 75 64 69 72 78 83 82 85 79 74 72 72 71 71 70 60 55 61 54 50
24 27 23 28 33 36 37 40 43 45 46 48 50 53 57 62 62 66 65 66 62 64 81 73 67 75 69 68 75 81 85 77 75 73 78 82 79 67 71 65 63 58 51
21 27 32 32 36 39 43 46 47 49 52 54 55 58 60 62 66 64 65 65 63 61 74 117 84 77 72 76 78 80 77 79 88 85 80 82 83 75 72 77 75 71 56
29 34 39 42 42 42 42 46 49 49 48 48 51 53 55 56 57 56 54 54 53 51 58 87 82 84 74 70 75 81 90 84 83 79 82 94 88 87 75 68 70 71 60
34 36 39 41 42 43 45 45 46 45 45 47 51 53 53 54 54 52 51 54 55 57 60 72 90 77 76 67 67 69 64 72 85 91 83 82 77 75 70 68 77 75 73
38 37 36 36 39 43 44 43 43 44 46 47 47 47 49 50 51 52 55 56 59 65 68 71 78 82 76 73 69 64 66 67 69 71 80 90 87 87 86 80 59 64 78
31 32 34 33 32 31 31 32 34 37 41 46 45 44 45 46 48 51 59 65 65 70 69 68 74 77 71 66 65 69 64 66 59 58 64 73 92 99 99 87 80 60 62
28 27 26 27 28 27 28 30 36 42 42 40 42 44 51 53 52 56 58 53 57 66 72 76 84 85 78 74 81 74 69 60 58 55 72 77 51 67 76 69 67 77 63
21 22 24 25 26 26 29 34 39 42 44 41 47 51 55 54 54 53 50 52 57 58 64 76 87 91 92 87 81 80 70 74 72 67 55 76 63 60 58 54 49 59 74
26 27 27 31 34 33 33 34 37 41 42 43 43 38 45 53 52 57 61 60 60 64 63 70 82 86 85 81 80 76 76 79 77 66 58 62 48 54 50 47 48 54 51
23 29 33 36 33 29 29 34 37 38 37 37 34 40 50 61 57 55 63 74 78 81 76 89 87 76 72 71 68 70 79 76 70 73 67 59 55 46 44 39 36 45 54
20 28 32 31 37 34 27 26 35 37 37 37 39 48 50 48 49 50 61 58 57 65 73 85 73 59 65 70 67 62 71 80 78 61 69 47 46 34 21 13 22 38 57
Wind_Direction_500mb
248 256 264 262 259 255 256 260 263 268 272 271 268 267 262 263 252 253 246 239 238 245 254 266 273 272 274 275 276 274 282 282 285 282 291 289 279 277 276 273 272 270 266
248 256 264 268 267 263 261 262 267 272 280 281 267 266 255 255 251 251 250 240 251 259 263 269 279 291 295 295 283 283 282 279 274 271 278 281 282 280 274 271 267 264 266
245 245 255 266 262 254 259 262 265 266 279 283 280 272 264 256 254 257 256 259 259 263 266 280 291 292 294 297 294 293 288 286 281 279 278 277 280 281 276 272 270 267 263
241 241 244 253 253 244 248 251 262 266 271 272 277 273 262 258 258 260 268 263 268 257 264 277 285 286 288 293 296 297 296 294 290 289 289 281 278 278 272 272 271 269 267
246 245 249 234 242 248 245 248 250 264 277 273 280 274 267 257 250 273 270 264 271 273 272 282 281 278 286 294 294 297 297 305 303 296 285 273 279 283 277 268 265 268 265
254 247 240 224 231 242 247 255 264 258 256 269 276 273 267 267 271 279 274 270 271 264 268 277 271 275 284 292 292 293 301 304 307 307 293 282 286 291 287 266 259 261 258
252 254 253 253 257 246 256 262 258 251 259 264 275 273 272 275 268 269 269 266 261 264 263 273 264 269 276 279 285 292 300 300 300 298 293 287 291 296 290 288 271 255 260
266 257 262 258 252 263 266 266 267 259 265 266 265 281 282 279 272 264 257 272 262 261 262 255 258 269 275 278 278 285 290 296 297 303 297 295 292 291 292 286 276 263 263
255 266 269 266 255 257 274 278 279 266 273 248 267 263 261 266 276 237 255 274 265 260 250 245 263 269 272 274 277 285 285 290 291 286 293 286 286 289 289 284 283 275 269
277 275 268 268 267 270 271 279 266 248 252 268 262 280 257 257 283 295 276 286 277 265 249 261 269 273 273 275 280 284 284 280 284 284 282 286 282 281 282 279 277 275 267
282 273 277 270 255 297 273 264 259 269 265 267 268 263 264 273 265 270 275 278 281 275 269 271 275 276 276 277 282 284 283 278 278 273 273 279 280 278 276 275 279 274 270
274 276 266 256 251 272 255 261 262 261 254 253 261 268 274 264 271 265 259 267 274 278 279 278 278 278 277 279 280 281 282 277 276 270 263 271 270 277 267 268 270 272 273
295 289 285 267 270 261 269 268 263 254 248 248 253 263 265 260 253 259 264 267 271 274 275 277 280 280 280 280 282 284 282 278 277 267 269 265 260 265 268 266 265 260 263
309 294 277 278 282 277 273 268 259 258 255 250 248 257 256 250 253 260 265 271 278 275 273 275 280 279 279 281 283 283 282 281 275 271 266 254 247 258 260 264 260 260 262
303 302 299 296 288 288 287 290 284 276 272 270 269 266 265 268 268 271 273 275 276 287 288 284 280 277 274 275 273 273 276 278 273 267 263 260 261 259 247 257 260 253 254
290 290 295 288 288 285 285 285 280 280 280 279 277 276 276 274 278 277 281 281 280 279 283 282 281 284 281 273 268 266 266 268 269 267 263 264 265 258 251 247 253 249 253
290 300 300 292 289 290 290 290 291 289 287 286 285 285 285 284 284 287 285 287 285 284 282 285 290 292 291 288 282 273 267 265 262 257 257 261 262 265 259 252 251 249 253
310 307 310 311 310 307 303 301 300 299 297 297 297 296 297 299 298 298 296 293 292 296 295 293 301 302 299 288 285 279 269 266 267 265 262 262 261 260 258 252 246 243 245
313 315 314 315 314 311 310 310 307 305 304 304 305 305 305 304 304 302 302 300 300 297 295 297 301 306 308 308 297 281 285 281 267 262 262 264 264 262 265 265 257 253 250
320 321 319 319 318 319 317 310 306 303 303 305 306 308 308 307 304 304 302 303 302 299 294 291 294 301 302 307 308 307 293 283 278 274 269 260 262 265 266 260 253 250 250
325 326 325 324 323 323 321 316 316 313 308 306 311 314 315 312 310 311 309 306 303 298 294 286 285 288 288 291 294 301 301 284 275 269 265 268 266 261 264 262 256 243 241
336 338 341 336 336 328 321 321 319 320 319 325 328 323 320 319 314 306 304 303 303 301 294 291 290 285 285 287 293 294 294 283 284 275 278 279 271 262 263 262 253 241 244
355 351 345 344 339 329 320 319 315 317 324 325 322 325 332 343 337 328 319 307 303 307 295 287 283 282 286 289 291 291 287 282 281 285 276 271 272 264 264 256 248 239 236
356 349 348 343 335 331 324 326 329 332 328 327 333 342 342 342 344 338 331 323 315 307 305 295 286 288 288 288 284 282 285 286 287 285 280 268 270 274 275 261 250 241 236
357 359 351 340 339 342 338 336 338 343 358 13 7 354 351 339 334 328 319 315 312 315 318 306 296 287 283 282 281 278 273 272 275 278 281 270 279 283 283 265 250 233 221
3 360 356 3 0 1 7 4 6 2 11 11 357 358 353 341 337 335 331 333 323 333 342 333 319 295 282 285 288 273 269 263 258 265 272 255 268 264 280 282 256 233 225
Wind_Speed_850mb
33 31 31 33 34 38 39 37 36 36 37 38 37 39 35 29 28 30 31 30 29 27 27 26 26 28 31 34 34 36 39 37 33 29 36 39 38 40 42 46 48 49 48
30 28 31 33 33 34 36 37 35 35 35 37 38 38 41 36 33 33 31 30 28 30 31 29 27 30 35 36 37 35 37 39 40 40 43 46 42 42 44 47 51 52 56
30 29 28 35 32 30 31 34 33 35 38 43 46 39 37 39 41 38 36 36 36 33 30 23 32 35 33 33 33 32 37 43 48 51 53 53 50 49 48 48 52 56 58
36 35 33 33 32 34 32 32 34 39 46 48 54 48 52 49 46 36 38 36 36 31 32 31 40 38 35 34 40 41 42 44 49 48 47 43 40 44 47 49 51 56 59
38 36 38 29 31 40 43 38 41 55 63 63 67 59 53 46 44 44 52 49 41 37 38 34 33 33 34 37 35 34 36 36 33 38 36 37 42 45 49 49 50 51 57
43 39 45 32 45 48 53 58 50 56 63 68 69 70 63 62 64 52 44 40 38 50 40 37 35 32 34 33 31 30 33 27 26 26 29 40 43 42 41 44 45 44 51
51 55 51 46 55 63 62 67 67 72 67 78 67 71 59 75 70 57 55 50 50 56 48 42 38 36 34 31 30 30 34 34 33 36 37 40 42 43 44 41 44 44 42
63 53 59 55 62 62 61 72 78 76 76 74 77 70 70 68 61 57 41 57 72 57 52 42 40 38 37 36 35 35 37 42 41 40 39 40 44 47 46 42 43 48 50
60 65 67 69 68 63 81 84 84 83 76 58 58 68 29 25 36 45 54 55 50 52 48 42 39 39 42 45 42 44 45 50 51 50 49 46 47 44 45 43 42 45 48
48 54 59 63 74 76 70 64 51 40 45 71 31 37 32 19 26 36 51 45 33 42 42 47 50 48 48 51 53 57 54 56 58 57 58 50 45 45 43 47 45 44 42
32 30 23 31 22 33 27 23 27 38 45 44 32 21 19 29 37 59 74 69 61 55 59 63 65 65 64 66 69 71 68 64 63 61 63 60 47 46 44 42 40 41 44
32 23 30 33 45 42 33 37 38 36 40 46 45 40 40 45 51 57 63 66 73 81 77 76 77 76 77 80 83 82 76 70 65 59 67 68 61 52 48 48 44 42 41
17 21 23 24 31 39 41 41 45 45 50 55 47 49 54 59 55 56 60 66 75 87 89 92 93 92 92 92 94 86 77 73 71 66 67 68 70 56 53 50 47 42 39
25 24 22 28 37 35 38 38 39 44 46 42 53 53 48 43 47 53 58 60 70 72 73 92 95 101 99 95 96 95 92 86 76 68 63 56 67 67 56 56 54 52 47
20 21 25 25 25 31 33 36 38 40 43 46 47 47 47 48 54 56 58 58 54 49 75 75 64 69 72 78 83 82 85 79 74 72 72 71 71 70 60 55 61 54 50
24 27 23 28 33 36 37 40 43 45 46 48 50 53 57 62 62 66 65 66 62 64 81 73 67 75 69 68 75 81 85 77 75 73 78 82 79 67 71 65 63 58 51
21 27 32 32 36 39 43 46 47 49 52 54 55 58 60 62 66 64 65 65 63 61 74 117 84 77 72 76 78 80 77 79 88 85 80 82 83 75 72 77 75 71 56
29 34 39 42 42 42 42 46 49 49 48 48 51 53 55 56 57 56 54 54 53 51 58 87 82 84 74 70 75 81 90 84 83 79 82 94 88 87 75 68 70 71 60
34 36 39 41 42 43 45 45 46 45 45 47 51 53 53 54 54 52 51 54 55 57 60 72 90 77 76 67 67 69 64 72 85 91 83 82 77 75 70 68 77 75 73
38 37 36 36 39 43 44 43 43 44 46 47 47 47 49 50 51 52 55 56 59 65 68 71 78 82 76 73 69 64 66 67 69 71 80 90 87 87 86 80 59 64 78
31 32 34 33 32 31 31 32 34 37 41 46 45 44 45 46 48 51 59 65 65 70 69 68 74 77 71 66 65 69 64 66 59 58 64 73 92 99 99 87 80 60 62
28 27 26 27 28 27 28 30 36 42 42 40 42 44 51 53 52 56 58 53 57 66 72 76 84 85 78 74 81 74 69 60 58 55 72 77 51 67 76 69 67 77 63
21 22 24 25 26 26 29 34 39 42 44 41 47 51 55 54 54 53 50 52 57 58 64 76 87 91 92 87 81 80 70 74 72 67 55 76 63 60 58 54 49 59 74
26 27 27 31 34 33 33 34 37 41 42 43 43 38 45 53 52 57 61 60 60 64 63 70 82 86 85 81 80 76 76 79 77 66 58 62 48 54 50 47 48 54 51
23 29 33 36 33 29 29 34 37 38 37 37 34 40 50 61 57 55 63 74 78 81 76 89 87 76 72 71 68 70 79 76 70 73 67 59 55 46 44 39 36 45 54
20 28 32 31 37 34 27 26 35 37 37 37 39 48 50 48 49 50 61 58 57 65 73 85 73 59 65 70 67 62 71 80 78 61 69 47 46 34 21 13 22 38 57
Wind_Direction_850mb
248 256 264 262 259 255 256 260 263 268 272 271 268 267 262 263 252 253 246 239 238 245 254 266 273 272 274 275 276 274 282 282 285 282 291 289 279 277 276 273 272 270 266
248 256 264 268 267 263 261 262 267 272 280 281 267 266 255 255 251 251 250 240 251 259 263 269 279 291 295 295 283 283 282 279 274 271 278 281 282 280 274 271 267 264 266
245 245 255 266 262 254 259 262 265 266 279 283 280 272 264 256 254 257 256 259 259 263 266 280 291 292 294 297 294 293 288 286 281 279 278 277 280 281 276 272 270 267 263
241 241 244 253 253 244 248 251 262 266 271 272 277 273 262 258 258 260 268 263 268 257 264 277 285 286 288 293 296 297 296 294 290 289 289 281 278 278 272 272 271 269 267
246 245 249 234 242 248 245 248 250 264 277 273 280 274 267 257 250 273 270 264 271 273 272 282 281 278 286 294 294 297 297 305 303 296 285 273 279 283 277 268 265 268 265
254 247 240 224 231 242 247 255 264 258 256 269 276 273 267 267 271 279 274 270 271 264 268 277 271 275 284 292 292 293 301 304 307 307 293 282 286 291 287 266 259 261 258
252 254 253 253 257 246 256 262 258 251 259 264 275 273 272 275 268 269 269 266 261 264 263 273 264 269 276 279 285 292 300 300 300 298 293 287 291 296 290 288 271 255 260
266 257 262 258 252 263 266 266 267 259 265 266 265 281 282 279 272 264 257 272 262 261 262 255 258 269 275 278 278 285 290 296 297 303 297 295 292 291 292 286 276 263 263
255 266 269 266 255 257 274 278 279 266 273 248 267 263 261 266 276 237 255 274 265 260 250 245 263 269 272 274 277 285 285 290 291 286 293 286 286 289 289 284 283 275 269
277 275 268 268 267 270 271 279 266 248 252 268 262 280 257 257 283 295 276 286 277 265 249 261 269 273 273 275 280 284 284 280 284 284 282 286 282 281 282 279 277 275 267
282 273 277 270 255 297 273 264 259 269 265 267 268 263 264 273 265 270 275 278 281 275 269 271 275 276 276 277 282 284 283 278 278 273 273 279 280 278 276 275 279 274 270
274 276 266 256 251 272 255 261 262 261 254 253 261 268 274 264 271 265 259 267 274 278 279 278 278 278 277 279 280 281 282 277 276 270 263 271 270 277 267 268 270 272 273
295 289 285 267 270 261 269 268 263 254 248 248 253 263 265 260 253 259 264 267 271 274 275 277 280 280 280 280 282 284 282 278 277 267 269 265 260 265 268 266 265 260 263
309 294 277 278 282 277 273 268 259 258 255 250 248 257 256 250 253 260 265 271 278 275 273 275 280 279 279 281 283 283 282 281 275 271 266 254 247 258 260 264 260 260 262
303 302 299 296 288 288 287 290 284 276 272 270 269 266 265 268 268 271 273 275 276 287 288 284 280 277 274 275 273 273 276 278 273 267 263 260 261 259 247 257 260 253 254
290 290 295 288 288 285 285 285 280 280 280 279 277 276 276 274 278 277 281 281 280 279 283 282 281 284 281 273 268 266 266 268 269 267 263 264 265 258 251 247 253 249 253
290 300 300 292 289 290 290 290 291 289 287 286 285 285 285 284 284 287 285 287 285 284 282 285 290 292 291 288 282 273 267 265 262 257 257 261 262 265 259 252 251 249 253
310 307 310 311 310 307 303 301 300 299 297 297 297 296 297 299 298 298 296 293 292 296 295 293 301 302 299 288 285 279 269 266 267 265 262 262 261 260 258 252 246 243 245
313 315 314 315 314 311 310 310 307 305 304 304 305 305 305 304 304 302 302 300 300 297 295 297 301 306 308 308 297 281 285 281 267 262 262 264 264 262 265 265 257 253 250
320 321 319 319 318 319 317 310 306 303 303 305 306 308 308 307 304 304 302 303 302 299 294 291 294 301 302 307 308 307 293 283 278 274 269 260 262 265 266 260 253 250 250
325 326 325 324 323 323 321 316 316 313 308 306 311 314 315 312 310 311 309 306 303 298 294 286 285 288 288 291 294 301 301 284 275 269 265 268 266 261 264 262 256 243 241
336 338 341 336 336 328 321 321 319 320 319 325 328 323 320 319 314 306 304 303 303 301 294 291 290 285 285 287 293 294 294 283 284 275 278 279 271 262 263 262 253 241 244
355 351 345 344 339 329 320 319 315 317 324 325 322 325 332 343 337 328 319 307 303 307 295 287 283 282 286 289 291 291 287 282 281 285 276 271 272 264 264 256 248 239 236
356 349 348 343 335 331 324 326 329 332 328 327 333 342 342 342 344 338 331 323 315 307 305 295 286 288 288 288 284 282 285 286 287 285 280 268 270 274 275 261 250 241 236
357 359 351 340 339 342 338 336 338 343 358 13 7 354 351 339 334 328 319 315 312 315 318 306 296 287 283 282 281 278 273 272 275 278 281 270 279 283 283 265 250 233 221
3 360 356 3 0 1 7 4 6 2 11 11 357 358 353 341 337 335 331 333 323 333 342 333 319 295 282 285 288 273 269 263 258 265 272 255 268 264 280 282 256 233 225